Temp
-5 -4 -4 -4 -4 -4 -4 -4 -4 -4 -4 -4 -4 -4 -4 -4 -4 -4 -4 -4 -4 -4 -4 -4 -5 -5 -5 -5 -5 -5 -5 -6 -6 -5 -5 -6 -6 -6 -6 -6 -6 -6 -6 -6 -6
-5 -4 -4 -4 -4 -4 -4 -4 -4 -4 -4 -4 -4 -4 -4 -4 -4 -4 -4 -4 -4 -4 -4 -5 -5 -5 -5 -5 -5 -5 -5 -6 -6 -5 -5 -5 -6 -6 -6 -6 -6 -6 -6 -6 -6
-5 -5 -5 -5 -5 -5 -4 -4 -4 -4 -4 -4 -4 -4 -4 -4 -4 -4 -4 -4 -4 -5 -5 -5 -5 -5 -5 -5 -5 -5 -5 -6 -6 -6 -6 -5 -5 -6 -6 -6 -5 -6 -6 -6 -6
-5 -5 -5 -5 -5 -5 -5 -5 -5 -5 -5 -5 -5 -5 -5 -4 -4 -5 -5 -5 -5 -5 -5 -5 -5 -5 -5 -5 -5 -5 -5 -6 -6 -6 -5 -5 -5 -6 -6 -5 -5 -6 -6 -6 -6
-5 -5 -5 -5 -5 -5 -5 -5 -5 -5 -5 -5 -5 -5 -5 -5 -5 -5 -5 -5 -5 -5 -5 -6 -6 -5 -5 -5 -5 -5 -5 -5 -6 -6 -6 -5 -6 -6 -6 -5 -5 -6 -6 -6 -5
-5 -5 -5 -5 -5 -5 -5 -5 -5 -5 -5 -5 -5 -5 -5 -5 -5 -5 -5 -5 -6 -6 -6 -6 -6 -6 -6 -6 -6 -5 -5 -5 -6 -6 -6 -5 -6 -6 -6 -5 -6 -6 -5 -6 -5
-6 -5 -5 -5 -5 -5 -5 -5 -5 -5 -5 -5 -5 -5 -5 -5 -5 -6 -5 -5 -6 -6 -6 -7 -7 -7 -7 -6 -6 -6 -6 -6 -6 -6 -6 -6 -6 -7 -6 -5 -6 -6 -5 -6 -6
-6 -5 -5 -5 -5 -5 -5 -5 -5 -5 -5 -5 -5 -5 -5 -6 -6 -6 -6 -6 -6 -6 -7 -7 -7 -7 -7 -7 -7 -7 -7 -7 -7 -7 -6 -6 -6 -6 -7 -6 -6 -6 -6 -6 -6
-6 -6 -6 -6 -5 -5 -5 -5 -5 -5 -5 -5 -5 -5 -6 -6 -6 -6 -6 -6 -6 -6 -7 -7 -7 -8 -8 -8 -8 -8 -8 -8 -8 -7 -7 -7 -6 -6 -7 -7 -6 -6 -6 -6 -6
-6 -6 -6 -6 -6 -6 -6 -6 -5 -5 -5 -5 -5 -5 -5 -5 -6 -6 -6 -6 -6 -6 -7 -7 -7 -8 -8 -8 -9 -8 -9 -8 -8 -8 -7 -7 -7 -6 -7 -7 -6 -6 -6 -6 -6
-7 -7 -7 -7 -6 -6 -6 -6 -6 -6 -6 -6 -6 -5 -5 -6 -6 -6 -6 -6 -6 -6 -7 -7 -7 -8 -8 -9 -9 -9 -9 -9 -8 -8 -8 -7 -8 -7 -7 -7 -7 -6 -6 -6 -6
-7 -7 -7 -7 -7 -7 -7 -7 -6 -6 -6 -6 -6 -6 -6 -6 -6 -6 -6 -6 -6 -7 -7 -7 -7 -8 -8 -9 -9 -10 -9 -9 -9 -8 -8 -8 -8 -8 -8 -7 -7 -6 -6 -6 -6
-7 -7 -7 -7 -7 -7 -7 -7 -7 -7 -7 -6 -6 -6 -6 -6 -6 -6 -6 -6 -6 -7 -7 -7 -7 -8 -8 -9 -9 -10 -9 -9 -8 -8 -8 -8 -8 -8 -8 -8 -8 -7 -7 -6 -6
-6 -7 -7 -7 -7 -7 -7 -7 -7 -7 -7 -7 -7 -7 -6 -7 -6 -6 -6 -6 -6 -7 -7 -7 -8 -8 -9 -9 -9 -10 -9 -9 -9 -8 -9 -9 -9 -8 -8 -8 -8 -8 -7 -7 -7
-6 -7 -7 -7 -7 -7 -7 -7 -7 -8 -8 -7 -7 -7 -7 -7 -7 -7 -7 -7 -7 -7 -7 -8 -8 -9 -9 -9 -10 -10 -9 -9 -9 -9 -9 -9 -9 -9 -8 -8 -8 -8 -7 -7 -7
-7 -7 -7 -7 -7 -7 -7 -8 -8 -8 -8 -8 -8 -8 -8 -8 -7 -7 -7 -7 -7 -7 -7 -7 -8 -9 -9 -10 -10 -10 -10 -10 -10 -10 -9 -9 -9 -9 -9 -8 -8 -7 -7 -7 -7
-7 -7 -7 -7 -7 -8 -8 -8 -8 -8 -8 -8 -8 -8 -8 -8 -8 -8 -8 -7 -7 -7 -7 -8 -8 -9 -9 -10 -10 -10 -11 -10 -9 -9 -9 -10 -9 -9 -9 -8 -7 -7 -7 -7 -7
-7 -7 -7 -7 -8 -8 -8 -8 -8 -8 -8 -9 -9 -9 -8 -8 -8 -8 -8 -8 -8 -8 -8 -8 -9 -9 -10 -10 -11 -10 -11 -10 -10 -9 -9 -10 -9 -9 -8 -8 -8 -7 -7 -7 -7
-7 -7 -8 -8 -8 -8 -8 -8 -8 -8 -8 -9 -9 -9 -9 -9 -9 -8 -8 -8 -8 -8 -8 -8 -9 -10 -9 -10 -11 -10 -10 -10 -10 -10 -10 -9 -9 -9 -8 -8 -8 -8 -7 -7 -7
-7 -7 -8 -8 -8 -8 -8 -8 -8 -8 -8 -8 -9 -9 -9 -9 -9 -9 -9 -9 -9 -9 -8 -9 -9 -10 -10 -10 -10 -10 -11 -10 -10 -10 -9 -9 -9 -9 -9 -8 -8 -8 -8 -8 -8
-8 -7 -8 -8 -8 -8 -8 -8 -8 -8 -8 -8 -8 -9 -10 -10 -10 -10 -10 -10 -9 -9 -9 -9 -9 -10 -10 -10 -11 -10 -10 -10 -10 -10 -9 -9 -9 -10 -10 -9 -9 -9 -8 -8 -8
-8 -8 -8 -8 -8 -8 -8 -8 -8 -8 -8 -8 -9 -9 -9 -9 -10 -10 -10 -10 -10 -10 -9 -10 -10 -10 -10 -11 -10 -10 -10 -10 -10 -10 -10 -9 -9 -9 -10 -10 -10 -9 -9 -8 -8
-7 -7 -8 -8 -8 -8 -8 -8 -8 -8 -8 -8 -8 -9 -9 -10 -11 -10 -11 -11 -10 -10 -10 -10 -10 -10 -10 -10 -10 -10 -10 -10 -10 -10 -10 -10 -9 -9 -9 -10 -10 -10 -9 -9 -8
-8 -8 -8 -8 -8 -8 -8 -8 -8 -8 -8 -8 -8 -8 -9 -9 -10 -11 -11 -10 -11 -11 -11 -11 -11 -10 -10 -10 -10 -10 -10 -10 -10 -10 -9 -10 -10 -10 -10 -10 -10 -10 -10 -9 -9
-7 -8 -8 -8 -8 -8 -8 -8 -8 -9 -8 -8 -9 -9 -8 -9 -9 -10 -11 -10 -11 -11 -11 -11 -11 -10 -10 -10 -10 -10 -10 -10 -10 -10 -10 -9 -10 -10 -10 -10 -9 -9 -9 -9 -9
-8 -8 -8 -8 -8 -8 -8 -8 -9 -9 -9 -9 -9 -9 -9 -9 -9 -9 -9 -11 -11 -11 -11 -11 -9 -10 -10 -10 -10 -10 -10 -10 -10 -10 -10 -10 -10 -10 -9 -10 -9 -9 -9 -9 -9
-8 -8 -8 -8 -8 -8 -8 -8 -8 -9 -9 -9 -9 -9 -9 -9 -9 -9 -9 -10 -10 -11 -11 -11 -11 -11 -10 -11 -10 -11 -10 -10 -10 -10 -10 -10 -9 -10 -9 -9 -9 -10 -10 -9 -9
Height
5890 5890 5890 5890 5891 5891 5892 5893 5894 5895 5896 5897 5898 5899 5899 5900 5900 5901 5901 5902 5901 5901 5901 5901 5902 5902 5902 5902 5902 5902 5902 5901 5900 5899 5897 5896 5896 5895 5895 5895 5894 5895 5894 5895 5895
5893 5892 5892 5893 5893 5893 5894 5895 5896 5897 5898 5899 5899 5900 5900 5901 5901 5901 5902 5901 5901 5901 5901 5901 5902 5901 5901 5901 5901 5900 5900 5899 5899 5898 5895 5895 5895 5894 5894 5894 5894 5894 5895 5895 5895
5895 5895 5895 5895 5896 5896 5897 5897 5898 5899 5900 5900 5901 5901 5901 5901 5901 5901 5901 5901 5901 5901 5900 5900 5900 5899 5899 5899 5899 5899 5898 5898 5897 5896 5895 5893 5892 5892 5893 5892 5892 5894 5895 5895 5895
5897 5897 5897 5897 5898 5898 5898 5899 5899 5900 5900 5901 5901 5901 5901 5901 5902 5901 5901 5901 5900 5900 5899 5898 5897 5897 5898 5897 5897 5897 5896 5896 5896 5895 5893 5892 5891 5890 5891 5891 5891 5892 5894 5894 5895
5897 5898 5898 5898 5898 5899 5899 5899 5900 5900 5900 5900 5901 5901 5900 5900 5900 5900 5899 5899 5899 5899 5898 5897 5896 5895 5894 5895 5895 5895 5895 5893 5893 5893 5891 5890 5889 5890 5889 5889 5890 5891 5892 5893 5895
5897 5897 5897 5897 5898 5898 5899 5899 5899 5899 5899 5899 5899 5900 5900 5900 5899 5898 5898 5897 5897 5896 5895 5894 5893 5892 5892 5892 5893 5893 5892 5892 5891 5891 5890 5889 5889 5889 5889 5889 5889 5890 5891 5892 5894
5895 5895 5895 5896 5896 5896 5897 5897 5897 5897 5897 5897 5898 5898 5898 5898 5897 5896 5896 5895 5895 5894 5893 5891 5891 5890 5889 5889 5889 5890 5890 5891 5891 5890 5889 5888 5888 5888 5888 5888 5888 5889 5890 5892 5893
5892 5893 5893 5893 5894 5894 5894 5894 5894 5895 5895 5895 5895 5895 5895 5895 5895 5894 5894 5893 5893 5892 5890 5889 5889 5888 5887 5887 5887 5887 5889 5889 5889 5889 5888 5888 5888 5886 5887 5888 5887 5888 5889 5890 5892
5891 5891 5891 5891 5891 5891 5891 5891 5891 5892 5892 5892 5892 5892 5893 5893 5893 5892 5892 5891 5890 5890 5888 5887 5887 5886 5886 5885 5886 5886 5887 5887 5887 5887 5887 5887 5886 5885 5885 5886 5886 5886 5888 5889 5892
5887 5888 5888 5888 5888 5888 5887 5887 5888 5888 5889 5889 5889 5891 5890 5890 5890 5889 5889 5889 5888 5887 5886 5886 5885 5885 5884 5884 5884 5884 5885 5885 5885 5886 5885 5885 5884 5884 5884 5884 5885 5886 5886 5888 5890
5883 5883 5884 5885 5885 5885 5885 5885 5886 5887 5886 5886 5886 5886 5887 5887 5887 5887 5887 5887 5886 5885 5884 5883 5883 5883 5883 5882 5882 5882 5883 5884 5885 5885 5885 5885 5884 5883 5883 5884 5884 5884 5885 5885 5887
5876 5877 5878 5880 5881 5882 5881 5882 5882 5884 5884 5883 5883 5884 5884 5884 5885 5885 5885 5885 5884 5882 5881 5882 5881 5881 5881 5880 5880 5881 5881 5884 5883 5884 5885 5885 5885 5885 5883 5883 5884 5884 5883 5884 5885
5871 5871 5871 5873 5875 5877 5877 5878 5879 5879 5880 5880 5880 5881 5882 5883 5883 5883 5883 5882 5881 5880 5879 5879 5879 5880 5879 5879 5879 5881 5881 5882 5883 5884 5886 5886 5886 5887 5886 5884 5882 5883 5883 5883 5884
5866 5867 5867 5868 5870 5869 5870 5872 5873 5875 5876 5877 5877 5878 5879 5879 5880 5880 5880 5880 5878 5877 5877 5877 5877 5878 5878 5878 5879 5880 5880 5881 5883 5885 5886 5886 5888 5885 5885 5884 5883 5882 5883 5883 5884
5863 5863 5863 5863 5864 5865 5866 5865 5867 5870 5870 5872 5872 5873 5875 5877 5877 5877 5877 5876 5875 5875 5876 5875 5875 5876 5877 5877 5877 5879 5877 5880 5880 5881 5884 5884 5886 5885 5883 5883 5882 5882 5882 5883 5883
5859 5859 5860 5860 5860 5861 5861 5862 5863 5865 5863 5865 5866 5868 5871 5872 5873 5873 5873 5873 5873 5873 5872 5873 5873 5874 5876 5876 5876 5877 5879 5880 5881 5881 5882 5881 5882 5886 5883 5882 5880 5881 5882 5882 5883
5855 5855 5856 5855 5855 5854 5856 5858 5860 5859 5861 5861 5861 5864 5866 5868 5869 5869 5870 5870 5871 5871 5870 5871 5872 5873 5874 5874 5875 5876 5879 5885 5888 5888 5885 5881 5881 5881 5882 5882 5879 5878 5880 5881 5881
5853 5852 5852 5851 5850 5850 5852 5855 5856 5856 5856 5857 5858 5860 5863 5864 5866 5866 5867 5867 5867 5868 5869 5869 5871 5872 5872 5873 5876 5876 5879 5884 5885 5887 5887 5882 5883 5881 5882 5881 5880 5878 5877 5877 5878
5851 5850 5850 5849 5848 5849 5851 5852 5853 5853 5853 5853 5855 5856 5859 5861 5863 5863 5865 5865 5865 5865 5867 5868 5869 5870 5870 5872 5874 5876 5876 5881 5881 5882 5883 5884 5883 5881 5879 5880 5880 5878 5877 5877 5876
5850 5849 5849 5848 5848 5849 5850 5850 5850 5851 5852 5851 5852 5854 5855 5857 5859 5861 5862 5863 5863 5864 5864 5865 5867 5869 5870 5871 5872 5873 5875 5876 5878 5881 5883 5882 5883 5879 5878 5879 5879 5878 5878 5878 5877
5849 5848 5847 5847 5847 5848 5848 5848 5848 5848 5848 5850 5849 5851 5852 5854 5856 5858 5860 5861 5862 5862 5863 5864 5866 5869 5869 5870 5873 5872 5870 5871 5877 5878 5882 5884 5884 5877 5877 5877 5878 5878 5877 5877 5877
5847 5847 5846 5845 5847 5846 5846 5845 5845 5846 5846 5846 5847 5847 5849 5850 5852 5854 5857 5858 5859 5860 5862 5863 5864 5866 5869 5870 5868 5870 5872 5872 5873 5876 5877 5876 5880 5876 5876 5875 5876 5876 5877 5876 5876
5845 5844 5843 5843 5843 5843 5843 5843 5842 5842 5842 5842 5842 5843 5844 5846 5848 5850 5851 5853 5855 5857 5858 5859 5861 5863 5866 5867 5867 5867 5869 5870 5873 5876 5876 5876 5880 5874 5874 5873 5874 5875 5875 5875 5875
5842 5842 5841 5840 5839 5838 5838 5837 5837 5836 5837 5837 5837 5838 5839 5840 5841 5842 5843 5846 5848 5849 5851 5852 5856 5858 5863 5866 5860 5863 5865 5866 5870 5873 5875 5874 5875 5873 5872 5871 5872 5872 5872 5872 5872
5839 5838 5837 5836 5835 5833 5832 5832 5830 5830 5830 5831 5832 5832 5832 5833 5835 5836 5837 5839 5840 5841 5842 5846 5849 5851 5853 5856 5856 5858 5860 5864 5863 5867 5870 5873 5871 5870 5870 5870 5869 5870 5869 5869 5869
5834 5834 5833 5831 5830 5828 5826 5824 5821 5821 5822 5823 5824 5826 5826 5826 5828 5827 5830 5831 5831 5835 5836 5839 5841 5843 5846 5850 5851 5851 5854 5857 5860 5861 5864 5865 5865 5864 5864 5865 5864 5865 5866 5866 5866
5829 5827 5826 5825 5823 5821 5819 5816 5813 5810 5812 5813 5814 5815 5816 5817 5820 5821 5822 5823 5824 5826 5829 5831 5833 5833 5836 5842 5842 5842 5848 5850 5853 5854 5856 5859 5861 5860 5860 5861 5861 5861 5862 5863 5863
Wind_Speed
10 9 10 9 6 5 5 5 7 8 9 9 10 11 11 10 9 9 9 8 6 4 4 5 4 3 2 3 4 4 4 7 5 6 8 6 6 11 11 11 10 8 7 9 11
12 13 13 13 13 13 13 13 13 13 13 13 12 12 11 10 10 8 8 8 7 6 6 7 4 2 4 5 4 4 5 6 4 7 9 10 11 12 11 10 14 10 9 8 9
10 10 11 11 11 12 12 13 13 12 12 11 10 9 8 8 6 7 8 8 8 8 8 5 4 5 6 7 5 4 6 6 5 6 8 11 12 13 12 15 13 11 9 8 9
6 7 8 8 8 7 7 7 7 7 8 8 8 6 6 6 7 7 8 9 10 10 8 5 6 7 8 8 9 8 9 8 4 5 7 7 9 14 14 15 11 10 9 8 9
2 2 3 3 3 2 1 1 2 3 5 6 5 5 5 4 5 6 8 10 11 10 8 6 6 8 10 10 11 9 10 11 7 5 7 7 6 8 11 12 10 10 10 7 8
5 3 3 4 5 5 5 5 4 5 6 6 5 4 4 4 6 7 9 11 12 11 9 6 6 9 11 11 11 12 14 9 7 4 4 7 9 7 7 8 9 10 9 7 7
9 9 8 7 8 8 8 8 9 9 9 8 7 6 6 6 7 9 10 11 12 11 8 7 7 8 10 11 11 12 15 12 8 5 3 3 5 14 10 8 8 9 9 8 7
9 8 9 9 9 9 9 9 8 8 9 9 9 8 9 9 9 10 11 11 12 11 7 8 7 7 8 10 11 10 10 12 9 8 6 4 6 8 13 10 9 11 11 9 8
8 9 9 9 9 9 10 11 11 11 12 11 12 12 12 11 11 10 11 10 12 10 6 8 8 7 7 9 9 9 8 10 12 10 8 7 8 10 11 11 9 11 11 11 9
12 12 11 11 12 12 12 13 13 13 13 13 14 14 13 12 11 11 10 10 11 9 7 9 9 8 7 7 8 9 8 9 9 10 8 7 6 8 11 9 10 9 11 10 10
20 18 16 13 12 10 10 9 9 9 8 9 11 11 10 10 9 9 8 10 11 10 8 9 9 8 7 8 7 9 11 10 8 9 8 7 7 7 8 7 9 13 12 12 11
26 26 25 22 18 15 14 13 13 12 9 9 10 9 8 8 8 8 9 11 12 10 9 10 10 8 8 6 7 8 13 10 12 12 9 7 6 9 11 12 10 11 12 12 11
16 17 20 24 26 24 22 20 17 15 14 14 13 11 10 10 10 11 11 11 11 11 11 11 9 8 7 5 6 7 12 14 13 9 8 9 6 7 11 14 16 10 13 13 13
14 11 12 14 16 22 26 27 25 22 22 20 18 17 16 14 14 14 12 11 11 11 9 7 7 7 5 5 7 11 12 14 12 10 7 8 4 7 8 14 13 15 11 11 10
14 13 13 12 12 14 17 21 25 26 26 25 24 21 18 16 15 14 13 12 10 9 8 8 10 10 7 4 4 8 13 10 16 17 20 8 4 8 11 10 13 13 13 10 12
14 13 13 14 17 17 17 17 15 19 26 25 22 19 16 14 12 11 10 10 11 9 8 9 10 11 7 3 2 1 4 5 2 4 8 10 12 4 6 9 12 15 12 7 7
10 11 12 15 17 15 14 13 14 16 17 22 21 17 14 12 11 10 8 8 10 10 9 10 10 12 6 4 3 1 2 3 4 4 9 11 8 4 4 7 12 11 13 10 9
11 7 10 10 7 8 11 11 10 12 16 17 18 16 13 12 12 10 9 8 7 11 11 13 11 10 6 4 4 5 5 8 8 5 7 8 6 10 6 5 5 6 9 9 10
6 6 6 7 4 3 7 10 10 8 7 13 18 18 16 15 14 13 10 10 8 9 14 13 14 15 11 7 7 8 9 8 10 11 6 7 4 6 7 4 2 3 4 4 4
6 5 6 8 5 3 7 11 11 10 9 9 19 18 19 18 15 13 11 10 10 11 13 18 17 17 13 8 7 8 11 9 8 8 7 9 2 3 6 9 5 2 3 1 3
6 6 6 5 4 3 5 8 9 9 12 13 15 20 21 22 18 16 15 13 12 12 14 16 18 15 14 10 8 11 8 9 11 11 9 8 8 9 6 11 10 5 6 2 2
8 8 9 8 7 7 10 10 10 10 10 12 14 18 22 22 23 21 19 21 18 15 17 19 20 18 15 16 14 12 8 9 8 10 10 16 11 16 9 8 4 5 11 8 2
8 9 10 11 13 13 13 13 13 13 12 13 16 18 17 22 23 25 27 26 24 23 22 20 19 18 15 17 15 15 10 9 10 10 13 10 8 15 7 14 3 10 10 14 8
11 11 12 12 13 15 17 18 19 19 18 16 17 17 20 21 23 25 21 33 33 32 29 26 23 22 16 15 15 11 14 14 14 12 9 11 11 13 6 7 8 8 8 11 15
14 13 12 13 15 18 21 22 23 23 23 22 21 20 20 22 24 27 31 30 29 24 33 26 31 29 28 25 24 27 20 17 18 17 15 12 15 11 13 10 10 10 8 8 12
15 15 17 17 19 24 24 23 28 28 27 28 28 25 26 27 25 28 26 32 35 31 29 26 23 27 27 27 24 25 23 17 21 18 20 19 19 17 13 11 12 13 12 10 10
19 19 21 23 25 27 28 26 25 28 31 31 30 31 31 32 29 30 29 31 33 36 35 34 33 37 32 30 31 33 25 24 21 20 15 17 13 13 14 13 12 9 12 12 10
Wind_Direction
82 83 82 84 98 120 126 114 107 99 95 89 80 76 76 80 75 74 61 52 44 38 357 12 18 7 294 268 292 285 287 312 298 314 289 296 277 276 251 264 272 265 233 226 233
85 83 83 85 90 97 100 99 96 90 83 77 73 71 69 67 76 53 43 35 24 12 3 353 356 304 269 261 263 277 284 292 304 321 300 283 270 271 257 258 275 257 230 218 230
84 87 92 94 97 99 99 96 90 83 73 64 59 57 58 58 62 38 36 23 16 11 8 355 318 276 271 271 263 239 267 266 296 305 295 282 272 251 233 261 263 244 231 224 216
72 88 101 108 107 103 97 91 83 70 57 47 47 48 45 47 53 32 27 20 16 20 4 342 288 272 259 254 257 240 227 252 291 306 310 284 249 235 242 258 244 230 222 209 199
46 86 121 134 143 141 126 85 46 23 16 16 27 33 32 27 22 10 9 12 14 9 352 329 292 275 259 247 244 229 234 239 255 291 290 283 210 236 242 258 241 226 216 206 203
290 272 250 235 234 249 262 271 287 304 317 328 337 351 356 347 337 343 355 359 7 360 341 315 274 265 257 249 235 222 221 243 253 276 283 261 218 226 254 252 239 231 221 208 211
278 273 262 253 254 258 261 269 277 281 286 292 299 305 315 318 316 324 333 345 354 351 338 296 285 271 268 259 244 227 227 236 252 271 259 257 228 228 248 248 224 227 227 221 214
272 274 271 264 262 260 260 263 265 269 269 271 273 276 281 291 301 309 318 330 339 341 335 286 299 288 278 265 257 247 246 224 245 251 239 221 253 239 254 234 218 220 233 220 209
276 276 276 274 272 269 266 263 263 260 260 261 264 268 271 282 284 293 301 315 328 330 313 295 292 290 278 267 269 261 252 233 247 251 245 221 241 242 231 225 220 212 232 229 220
268 267 265 272 274 272 267 262 261 263 264 264 265 269 271 271 274 281 292 308 317 315 296 291 275 277 284 276 258 254 230 222 237 241 235 217 216 242 231 218 218 222 216 223 234
263 260 260 254 258 261 260 258 259 264 264 265 268 270 268 265 266 272 286 303 305 307 287 281 266 260 265 263 257 245 222 227 229 224 231 228 221 233 236 223 216 215 233 239 239
265 261 257 254 251 254 256 256 259 265 268 266 268 271 268 260 269 278 294 299 300 296 281 275 256 244 253 265 243 246 220 231 230 229 223 238 250 243 257 272 253 241 234 230 229
277 270 265 259 253 252 253 256 256 256 261 261 263 266 267 265 276 283 291 292 291 290 280 277 255 229 242 267 230 239 230 223 213 221 236 240 246 224 248 263 278 274 260 250 239
283 278 273 267 260 254 251 252 254 255 259 261 263 270 269 270 276 282 281 281 283 285 280 271 238 214 218 237 213 212 223 227 243 231 214 212 225 268 247 242 258 276 261 256 281
281 279 267 267 265 262 259 255 255 255 259 259 263 265 268 271 276 277 277 276 268 275 275 252 220 202 206 211 203 245 218 211 223 227 222 216 227 278 285 282 250 260 265 279 269
278 275 277 274 278 270 263 259 257 254 252 259 264 265 265 268 272 274 275 269 263 269 271 269 233 217 210 168 117 62 285 251 22 343 300 235 211 339 290 306 281 261 262 257 281
291 280 283 290 281 262 252 253 250 251 257 254 256 260 262 265 263 271 275 273 274 272 254 241 219 220 200 132 84 200 274 308 253 306 284 294 245 306 258 302 309 261 258 269 266
299 295 303 313 296 251 238 240 245 262 261 255 251 252 255 255 264 269 280 297 296 254 239 224 218 217 190 153 225 289 243 232 265 269 261 298 332 290 277 267 311 279 242 257 256
324 319 333 341 335 221 214 229 239 264 285 244 239 247 251 258 264 275 283 302 289 273 236 217 208 210 200 208 237 277 290 251 249 275 264 249 305 310 231 215 289 255 302 266 248
349 342 329 352 341 276 242 250 257 267 272 250 231 242 249 257 262 271 280 286 271 256 244 206 199 206 216 208 237 278 261 266 277 235 233 260 260 311 192 191 194 193 177 113 33
332 331 324 323 327 298 290 281 273 263 252 253 246 239 240 246 251 258 256 270 256 253 228 210 214 216 221 216 240 258 271 225 216 216 208 242 251 236 139 190 221 210 196 235 312
314 311 308 308 297 285 286 282 275 272 255 244 246 248 243 249 241 247 242 235 245 240 229 219 223 224 236 243 236 243 249 250 226 280 244 208 226 261 232 153 151 208 244 248 195
323 312 304 299 294 288 283 279 276 273 264 257 250 245 248 242 241 235 234 234 230 229 229 237 242 239 251 258 265 263 274 250 244 246 242 238 241 264 255 263 291 286 289 267 261
310 304 303 302 300 298 291 281 273 267 261 258 256 250 246 247 242 247 246 229 217 226 224 228 236 236 225 232 237 244 252 255 241 246 263 260 213 270 262 247 237 251 276 258 264
324 311 312 307 306 303 296 286 279 270 262 256 252 251 251 250 248 246 244 255 261 255 231 238 240 233 234 231 248 236 236 255 242 247 243 238 261 242 246 252 257 241 253 280 277
305 302 303 298 300 306 310 298 277 270 266 259 255 252 249 249 251 252 250 249 250 252 257 257 245 247 240 234 241 247 244 245 244 242 249 254 248 259 248 268 265 236 258 279 288
306 299 299 301 308 307 307 301 290 276 265 263 258 254 251 251 249 250 251 251 252 252 250 252 251 257 252 241 249 243 236 246 246 249 255 254 261 261 260 246 248 223 235 259 281